Погода в Сайге

Россия / Томская область     58°01′40″N   85°25′50″E
В апреле 2022 года жителям России запретили посещать сайт meteo.paraplan.net по решению Генеральной прокуратуры. Аудитория сайта уменьшилась в 10 раз. Владельцы сайта не видят смысла в поддержке погодного сервера в таких условиях. Сайт будет закрыт в октябре.
темп.,
°C
ветер,
м/с
пор.,
м/с
влажн.,
%
обл.,
%
осадки,
мм/ч
давл.,
гПа
погр.,
м
5 октября, ср
ср501:00+1юз3987100 0.0 1027423
04:00+1юз3998100 0.3 1026528
07:00+2юз3998100 0.4 1024516
10:00+2з4998100 0.8 1024616
13:00+3сз488844 0.9 1025825
16:00+4сз4778100 0.0 10261060
19:00+3з268598 0.1 1026208
22:00+2зсз279580 0.1 1027177
6 октября, чт
чт601:00+2з279598 0.1 1027520
04:00+2зсз3796100 0.1 1027450
07:00+1зсз2798100 0.2 1027316
10:00+1ссз2698100 0.3 1028359
13:00+3с3475100 0.4 10291011
16:00+2с2381100 0.0 1030406
19:00+1сз1283100 0.0 103240
22:00+1ююз1182100 0.0 103220
7 октября, пт
пт701:00+1ююз1284100 0.0 103262
04:00+1ю2488100 0.0 1032150
07:00+1ю2588100 0.0 1031167
10:00+2ю3782100 0.0 1030316
13:00+5ю4671100 0.0 1028621
16:00+6ю466999 0.0 1027658
19:00+4ююв3984100 0.0 1026310
22:00+3ююв41187100 0.0 1025331
8 октября, сб
сб801:00+4ююв41287100 0.0 1023355
04:00+3ююв41386100 0.0 1021363
07:00+3ююв41384100 0.0 1020356
10:00+5ююв41374100 0.0 1018433
13:00+8ююв51262100 0.0 1016524
16:00+9ююв51260100 0.0 1013622
19:00+7ююв5146897 0.0 1011484
22:00+6ююв41278100 0.0 1010359
9 октября, вс
вс901:00+4ююв28905 0.0 1009152
04:00+3ю26935 0.0 100898
07:00+3ююз23930 0.0 100847
10:00+6юз12770 0.0 1008169
13:00+11зюз116166 0.0 1007478
16:00+11зсз116288 0.0 1007764
19:00+7зсз2489100 0.7 100793
22:00+7ююз1296100 10.2 100966